User: anonymous   Login
Location: Bouysse
(45.3674°N, 1.8947°E)
Time: 12:14:17
(UTC+00:00)
Language:

Cosmos 1408 Rocket - Orbit

View from above orbital plane
View from above orbital plane
View from above satellite
View from above satellite

Ground track
Ground track

The orbit data is extracted from the following two-line orbital elements,

1 13553U 82092B   20227.15699259  .00000065  00000-0  47830-5 0  9995
2 13553  82.5664 238.8307 0021145 186.9704 241.8467 14.84237323 48202
Epoch (UTC): 14 August 2020 03:46:04
Eccentricity: 0.0021145
inclination: 82.5664°
perigee height: 601 km
apogee height: 631 km
right ascension of ascending node: 238.8307°
argument of perigee: 186.9704°
revolutions per day: 14.84237323
mean anomaly at epoch: 241.8467°
orbit number at epoch: 4820

The dashed part of the orbit path shows where the satellite is in the earth's shadow,  

DLR